Year,Month,Day,Hour,Minute,Value (Times are PST for temperature in C)
2016,09,29,00,00,10.20
2016,09,29,00,01,10.20
2016,09,29,00,02,10.20
2016,09,29,00,03,10.20
2016,09,29,00,04,10.20
2016,09,29,00,05,10.20
2016,09,29,00,06,10.20
2016,09,29,00,07,10.30
2016,09,29,00,08,10.30
2016,09,29,00,09,10.30
2016,09,29,00,10,10.30
2016,09,29,00,11,10.30
2016,09,29,00,12,10.30
2016,09,29,00,13,10.30
2016,09,29,00,14,10.30
2016,09,29,00,15,10.30
2016,09,29,00,16,10.30
2016,09,29,00,17,10.30
2016,09,29,00,18,10.30
2016,09,29,00,19,10.30
2016,09,29,00,20,10.30
2016,09,29,00,21,10.30
2016,09,29,00,22,10.30
2016,09,29,00,23,10.30
2016,09,29,00,24,10.30
2016,09,29,00,25,10.20
2016,09,29,00,26,10.20
2016,09,29,00,27,10.20
2016,09,29,00,28,10.20
2016,09,29,00,29,10.20
2016,09,29,00,30,10.10
2016,09,29,00,31,10.10
2016,09,29,00,32,10.10
2016,09,29,00,33,10.10
2016,09,29,00,34,10.10
2016,09,29,00,35,10.00
2016,09,29,00,36,10.00
2016,09,29,00,37,10.00
2016,09,29,00,38,10.00
2016,09,29,00,39,10.00
2016,09,29,00,40,9.90
2016,09,29,00,41,9.90
2016,09,29,00,42,9.90
2016,09,29,00,43,9.90
2016,09,29,00,44,10.00
2016,09,29,00,45,10.00
2016,09,29,00,46,10.00
2016,09,29,00,47,9.90
2016,09,29,00,48,9.90
2016,09,29,00,49,9.90
2016,09,29,00,50,9.90
2016,09,29,00,51,9.90
2016,09,29,00,52,9.90
2016,09,29,00,53,9.90
2016,09,29,00,54,9.90
2016,09,29,00,55,9.90
2016,09,29,00,56,9.90
2016,09,29,00,57,9.90
2016,09,29,00,58,9.90
2016,09,29,00,59,9.90
2016,09,29,01,00,9.90
2016,09,29,01,01,9.90
2016,09,29,01,02,9.90
2016,09,29,01,03,9.90
2016,09,29,01,04,9.90
2016,09,29,01,05,9.90
2016,09,29,01,06,9.90
2016,09,29,01,07,9.90
2016,09,29,01,08,9.90
2016,09,29,01,09,9.90
2016,09,29,01,10,9.90
2016,09,29,01,11,9.90
2016,09,29,01,12,9.90
2016,09,29,01,13,9.90
2016,09,29,01,14,9.90
2016,09,29,01,15,9.90
2016,09,29,01,16,9.90
2016,09,29,01,17,9.80
2016,09,29,01,18,9.80
2016,09,29,01,19,9.80
2016,09,29,01,20,9.80
2016,09,29,01,21,9.80
2016,09,29,01,22,9.80
2016,09,29,01,23,9.80
2016,09,29,01,24,9.80
2016,09,29,01,25,9.80
2016,09,29,01,26,9.80
2016,09,29,01,27,9.80
2016,09,29,01,28,9.80
2016,09,29,01,29,9.80
2016,09,29,01,30,9.80
2016,09,29,01,31,9.80
2016,09,29,01,32,9.70
2016,09,29,01,33,9.70
2016,09,29,01,34,9.70
2016,09,29,01,35,9.70
2016,09,29,01,36,9.70
2016,09,29,01,37,9.70
2016,09,29,01,38,9.70
2016,09,29,01,39,9.70
2016,09,29,01,40,9.70
2016,09,29,01,41,9.70
2016,09,29,01,42,9.70
2016,09,29,01,43,9.70
2016,09,29,01,44,9.70
2016,09,29,01,45,9.70
2016,09,29,01,46,9.70
2016,09,29,01,47,9.70
2016,09,29,01,48,9.60
2016,09,29,01,49,9.60
2016,09,29,01,50,9.70
2016,09,29,01,51,9.70
2016,09,29,01,52,9.70
2016,09,29,01,53,9.70
2016,09,29,01,54,9.70
2016,09,29,01,55,9.70
2016,09,29,01,56,9.60
2016,09,29,01,57,9.60
2016,09,29,01,58,9.60
2016,09,29,01,59,9.60
2016,09,29,02,00,9.60
2016,09,29,02,01,9.60
2016,09,29,02,02,9.60
2016,09,29,02,03,9.60
2016,09,29,02,04,9.60
2016,09,29,02,05,9.60
2016,09,29,02,06,9.50
2016,09,29,02,07,9.50
2016,09,29,02,08,9.50
2016,09,29,02,09,9.50
2016,09,29,02,10,9.40
2016,09,29,02,11,9.40
2016,09,29,02,12,9.40
2016,09,29,02,13,9.40
2016,09,29,02,14,9.40
2016,09,29,02,15,9.40
2016,09,29,02,16,9.30
2016,09,29,02,17,9.30
2016,09,29,02,18,9.30
2016,09,29,02,19,9.30
2016,09,29,02,20,9.30
2016,09,29,02,21,9.30
2016,09,29,02,22,9.30
2016,09,29,02,23,9.30
2016,09,29,02,24,9.30
2016,09,29,02,25,9.30
2016,09,29,02,26,9.30
2016,09,29,02,27,9.30
2016,09,29,02,28,9.30
2016,09,29,02,29,9.30
2016,09,29,02,30,9.30
2016,09,29,02,31,9.30
2016,09,29,02,32,9.30
2016,09,29,02,33,9.30
2016,09,29,02,34,9.20
2016,09,29,02,35,9.20
2016,09,29,02,36,9.20
2016,09,29,02,37,9.20
2016,09,29,02,38,9.20
2016,09,29,02,39,9.20
2016,09,29,02,40,9.10
2016,09,29,02,41,9.10
2016,09,29,02,42,9.10
2016,09,29,02,43,9.10
2016,09,29,02,44,9.10
2016,09,29,02,45,9.00
2016,09,29,02,46,9.00
2016,09,29,02,47,9.00
2016,09,29,02,48,9.00
2016,09,29,02,49,9.00
2016,09,29,02,50,9.00
2016,09,29,02,51,9.00
2016,09,29,02,52,9.00
2016,09,29,02,53,8.90
2016,09,29,02,54,8.90
2016,09,29,02,55,8.90
2016,09,29,02,56,8.90
2016,09,29,02,57,8.90
2016,09,29,02,58,8.90
2016,09,29,02,59,8.90
2016,09,29,03,00,8.90
2016,09,29,03,01,8.90
2016,09,29,03,02,8.90
2016,09,29,03,03,8.90
2016,09,29,03,04,8.90
2016,09,29,03,05,8.80
2016,09,29,03,06,8.80
2016,09,29,03,07,8.80
2016,09,29,03,08,8.80
2016,09,29,03,09,8.80
2016,09,29,03,10,8.80
2016,09,29,03,11,8.80
2016,09,29,03,12,8.80
2016,09,29,03,13,8.80
2016,09,29,03,14,8.80
2016,09,29,03,15,8.80
2016,09,29,03,16,8.80
2016,09,29,03,17,8.80
2016,09,29,03,18,8.80
2016,09,29,03,19,8.70
2016,09,29,03,20,8.70
2016,09,29,03,21,8.70
2016,09,29,03,22,8.70
2016,09,29,03,23,8.70
2016,09,29,03,24,8.80
2016,09,29,03,25,8.80
2016,09,29,03,26,8.80
2016,09,29,03,27,8.80
2016,09,29,03,28,8.80
2016,09,29,03,29,8.80
2016,09,29,03,30,8.90
2016,09,29,03,31,8.90
2016,09,29,03,32,8.90
2016,09,29,03,33,8.90
2016,09,29,03,34,8.80
2016,09,29,03,35,8.80
2016,09,29,03,36,8.80
2016,09,29,03,37,8.70
2016,09,29,03,38,8.70
2016,09,29,03,39,8.70
2016,09,29,03,40,8.70
2016,09,29,03,41,8.70
2016,09,29,03,42,8.70
2016,09,29,03,43,8.70
2016,09,29,03,44,8.70
2016,09,29,03,45,8.70
2016,09,29,03,46,8.70
2016,09,29,03,47,8.70
2016,09,29,03,48,8.70
2016,09,29,03,49,8.70
2016,09,29,03,50,8.70
2016,09,29,03,51,8.60
2016,09,29,03,52,8.60
2016,09,29,03,53,8.60
2016,09,29,03,54,8.60
2016,09,29,03,55,8.60
2016,09,29,03,56,8.60
2016,09,29,03,57,8.60
2016,09,29,03,58,8.50
2016,09,29,03,59,8.50
2016,09,29,04,00,8.50
2016,09,29,04,01,8.50
2016,09,29,04,02,8.40
2016,09,29,04,03,8.40
2016,09,29,04,04,8.40
2016,09,29,04,05,8.40
2016,09,29,04,06,8.30
2016,09,29,04,07,8.30
2016,09,29,04,08,8.30
2016,09,29,04,09,8.20
2016,09,29,04,10,8.20
2016,09,29,04,11,8.20
2016,09,29,04,12,8.20
2016,09,29,04,13,8.20
2016,09,29,04,14,8.20
2016,09,29,04,15,8.20
2016,09,29,04,16,8.20
2016,09,29,04,17,8.20
2016,09,29,04,18,8.20
2016,09,29,04,19,8.20
2016,09,29,04,20,8.20
2016,09,29,04,21,8.20
2016,09,29,04,22,8.20
2016,09,29,04,23,8.20
2016,09,29,04,24,8.20
2016,09,29,04,25,8.20
2016,09,29,04,26,8.20
2016,09,29,04,27,8.20
2016,09,29,04,28,8.20
2016,09,29,04,29,8.20
2016,09,29,04,30,8.20
2016,09,29,04,31,8.10
2016,09,29,04,32,8.10
2016,09,29,04,33,8.10
2016,09,29,04,34,8.10
2016,09,29,04,35,8.10
2016,09,29,04,36,8.10
2016,09,29,04,37,8.10
2016,09,29,04,38,8.10
2016,09,29,04,39,8.10
2016,09,29,04,40,8.10
2016,09,29,04,41,8.10
2016,09,29,04,42,8.10
2016,09,29,04,43,8.10
2016,09,29,04,44,8.10
2016,09,29,04,45,8.10
2016,09,29,04,46,8.10
2016,09,29,04,47,8.10
2016,09,29,04,48,8.10
2016,09,29,04,49,8.10
2016,09,29,04,50,8.20
2016,09,29,04,51,8.20
2016,09,29,04,52,8.20
2016,09,29,04,53,8.20
2016,09,29,04,54,8.20
2016,09,29,04,55,8.20
2016,09,29,04,56,8.20
2016,09,29,04,57,8.20
2016,09,29,04,58,8.20
2016,09,29,04,59,8.20
2016,09,29,05,00,8.20
2016,09,29,05,01,8.20
2016,09,29,05,02,8.20
2016,09,29,05,03,8.20
2016,09,29,05,04,8.20
2016,09,29,05,05,8.20
2016,09,29,05,06,8.20
2016,09,29,05,07,8.20
2016,09,29,05,08,8.20
2016,09,29,05,09,8.20
2016,09,29,05,10,8.20
2016,09,29,05,11,8.20
2016,09,29,05,12,8.20
2016,09,29,05,13,8.20
2016,09,29,05,14,8.20
2016,09,29,05,15,8.20
2016,09,29,05,16,8.20
2016,09,29,05,17,8.20
2016,09,29,05,18,8.20
2016,09,29,05,19,8.20
2016,09,29,05,20,8.20
2016,09,29,05,21,8.20
2016,09,29,05,22,8.20
2016,09,29,05,23,8.20
2016,09,29,05,24,8.20
2016,09,29,05,25,8.20
2016,09,29,05,26,8.20
2016,09,29,05,27,8.10
2016,09,29,05,28,8.10
2016,09,29,05,29,8.10
2016,09,29,05,30,8.10
2016,09,29,05,31,8.00
2016,09,29,05,32,8.00
2016,09,29,05,33,7.90
2016,09,29,05,34,7.90
2016,09,29,05,35,7.90
2016,09,29,05,36,7.80
2016,09,29,05,37,7.80
2016,09,29,05,38,7.80
2016,09,29,05,39,7.80
2016,09,29,05,40,7.80
2016,09,29,05,41,7.70
2016,09,29,05,42,7.70
2016,09,29,05,43,7.70
2016,09,29,05,44,7.70
2016,09,29,05,45,7.70
2016,09,29,05,46,7.70
2016,09,29,05,47,7.60
2016,09,29,05,48,7.60
2016,09,29,05,49,7.60
2016,09,29,05,50,7.60
2016,09,29,05,51,7.60
2016,09,29,05,52,7.60
2016,09,29,05,53,7.50
2016,09,29,05,54,7.50
2016,09,29,05,55,7.50
2016,09,29,05,56,7.50
2016,09,29,05,57,7.40
2016,09,29,05,58,7.40
2016,09,29,05,59,7.40
2016,09,29,06,00,7.40
2016,09,29,06,01,7.30
2016,09,29,06,02,7.30
2016,09,29,06,03,7.30
2016,09,29,06,04,7.30
2016,09,29,06,05,7.30
2016,09,29,06,06,7.30
2016,09,29,06,07,7.20
2016,09,29,06,08,7.20
2016,09,29,06,09,7.20
2016,09,29,06,10,7.20
2016,09,29,06,11,7.20
2016,09,29,06,12,7.10
2016,09,29,06,13,7.10
2016,09,29,06,14,7.10
2016,09,29,06,15,7.10
2016,09,29,06,16,7.10
2016,09,29,06,17,7.10
2016,09,29,06,18,7.10
2016,09,29,06,19,7.00
2016,09,29,06,20,7.00
2016,09,29,06,21,7.00
2016,09,29,06,22,7.00
2016,09,29,06,23,7.00
2016,09,29,06,24,7.00
2016,09,29,06,25,7.00
2016,09,29,06,26,7.00
2016,09,29,06,27,7.00
2016,09,29,06,28,7.00
2016,09,29,06,29,7.00
2016,09,29,06,30,7.00
2016,09,29,06,31,7.00
2016,09,29,06,32,7.00
2016,09,29,06,33,7.10
2016,09,29,06,34,7.10
2016,09,29,06,35,7.10
2016,09,29,06,36,7.10
2016,09,29,06,37,7.10
2016,09,29,06,38,7.20
2016,09,29,06,39,7.20
2016,09,29,06,40,7.20
2016,09,29,06,41,7.20
2016,09,29,06,42,7.20
2016,09,29,06,43,7.20
2016,09,29,06,44,7.20
2016,09,29,06,45,7.20
2016,09,29,06,46,7.20
2016,09,29,06,47,7.20
2016,09,29,06,48,7.20
2016,09,29,06,49,7.20
2016,09,29,06,50,7.20
2016,09,29,06,51,7.20
2016,09,29,06,52,7.20
2016,09,29,06,53,7.20
2016,09,29,06,54,7.20
2016,09,29,06,55,7.20
2016,09,29,06,56,7.10
2016,09,29,06,57,7.10
2016,09,29,06,58,7.10
2016,09,29,06,59,7.10
2016,09,29,07,00,7.10
2016,09,29,07,01,7.10
2016,09,29,07,02,7.10
2016,09,29,07,03,7.10
2016,09,29,07,04,7.10
2016,09,29,07,05,7.10
2016,09,29,07,06,7.10
2016,09,29,07,07,7.10
2016,09,29,07,08,7.10
2016,09,29,07,09,7.10
2016,09,29,07,10,7.10
2016,09,29,07,11,7.10
2016,09,29,07,12,7.10
2016,09,29,07,13,7.10
2016,09,29,07,14,7.20
2016,09,29,07,15,7.20
2016,09,29,07,16,7.20
2016,09,29,07,17,7.20
2016,09,29,07,18,7.20
2016,09,29,07,19,7.20
2016,09,29,07,20,7.10
2016,09,29,07,21,7.10
2016,09,29,07,22,7.10
2016,09,29,07,23,7.10
2016,09,29,07,24,7.10
2016,09,29,07,25,7.10
2016,09,29,07,26,7.00
2016,09,29,07,27,7.00
2016,09,29,07,28,7.00
2016,09,29,07,29,7.00
2016,09,29,07,30,7.10
2016,09,29,07,31,7.10
2016,09,29,07,32,7.20
2016,09,29,07,33,7.30
2016,09,29,07,34,7.30
2016,09,29,07,35,7.30
2016,09,29,07,36,7.40
2016,09,29,07,37,7.40
2016,09,29,07,38,7.50
2016,09,29,07,39,7.50
2016,09,29,07,40,7.50
2016,09,29,07,41,7.60
2016,09,29,07,42,7.60
2016,09,29,07,43,7.60
2016,09,29,07,44,7.60
2016,09,29,07,45,7.60
2016,09,29,07,46,7.60
2016,09,29,07,47,7.60
2016,09,29,07,48,7.60
2016,09,29,07,49,7.50
2016,09,29,07,50,7.50
2016,09,29,07,51,7.50
2016,09,29,07,52,7.50
2016,09,29,07,53,7.50
2016,09,29,07,54,7.50
2016,09,29,07,55,7.60
2016,09,29,07,56,7.60
2016,09,29,07,57,7.60
2016,09,29,07,58,7.60
2016,09,29,07,59,7.70
2016,09,29,08,00,7.70
2016,09,29,08,01,7.70
2016,09,29,08,02,7.70
2016,09,29,08,03,7.70
2016,09,29,08,04,7.70
2016,09,29,08,05,7.70
2016,09,29,08,06,7.70
2016,09,29,08,07,7.70
2016,09,29,08,08,7.70
2016,09,29,08,09,7.70
2016,09,29,08,10,7.70
2016,09,29,08,11,7.70
2016,09,29,08,12,7.70
2016,09,29,08,13,7.70
2016,09,29,08,14,7.70
2016,09,29,08,15,7.70
2016,09,29,08,16,7.70
2016,09,29,08,17,7.70
2016,09,29,08,18,7.70
2016,09,29,08,19,7.70
2016,09,29,08,20,7.70
2016,09,29,08,21,7.80
2016,09,29,08,22,7.80
2016,09,29,08,23,7.80
2016,09,29,08,24,7.80
2016,09,29,08,25,7.80
2016,09,29,08,26,7.80
2016,09,29,08,27,7.80
2016,09,29,08,28,7.90
2016,09,29,08,29,7.90
2016,09,29,08,30,7.90
2016,09,29,08,31,7.90
2016,09,29,08,32,7.90
2016,09,29,08,33,7.90
2016,09,29,08,34,7.90
2016,09,29,08,35,8.00
2016,09,29,08,36,8.00
2016,09,29,08,37,8.00
2016,09,29,08,38,8.00
2016,09,29,08,39,8.00
2016,09,29,08,40,8.00
2016,09,29,08,41,8.00
2016,09,29,08,42,8.00
2016,09,29,08,43,8.00
2016,09,29,08,44,8.10
2016,09,29,08,45,8.10
2016,09,29,08,46,8.10
2016,09,29,08,47,8.10
2016,09,29,08,48,8.10
2016,09,29,08,49,8.10
2016,09,29,08,50,8.10
2016,09,29,08,51,8.20
2016,09,29,08,52,8.20
2016,09,29,08,53,8.20
2016,09,29,08,54,8.30
2016,09,29,08,55,8.30
2016,09,29,08,56,8.30
2016,09,29,08,57,8.30
2016,09,29,08,58,8.30
2016,09,29,08,59,8.30
2016,09,29,09,00,8.40
2016,09,29,09,01,8.40
2016,09,29,09,02,8.40
2016,09,29,09,03,8.40
2016,09,29,09,04,8.40
2016,09,29,09,05,8.40
2016,09,29,09,06,8.50
2016,09,29,09,07,8.50
2016,09,29,09,08,8.60
2016,09,29,09,09,8.60
2016,09,29,09,10,8.70
2016,09,29,09,11,8.70
2016,09,29,09,12,8.70
2016,09,29,09,13,8.80
2016,09,29,09,14,8.80
2016,09,29,09,15,8.90
2016,09,29,09,16,8.90
2016,09,29,09,17,9.00
2016,09,29,09,18,9.00
2016,09,29,09,19,9.10
2016,09,29,09,20,9.10
2016,09,29,09,21,9.20
2016,09,29,09,22,9.20
2016,09,29,09,23,9.20
2016,09,29,09,24,9.30
2016,09,29,09,25,9.30
2016,09,29,09,26,9.30
2016,09,29,09,27,9.30
2016,09,29,09,28,9.40
2016,09,29,09,29,9.40
2016,09,29,09,30,9.50
2016,09,29,09,31,9.50
2016,09,29,09,32,9.60
2016,09,29,09,33,9.60
2016,09,29,09,34,9.70
2016,09,29,09,35,9.70
2016,09,29,09,36,9.70
2016,09,29,09,37,9.80
2016,09,29,09,38,9.80
2016,09,29,09,39,9.80
2016,09,29,09,40,9.80
2016,09,29,09,41,9.80
2016,09,29,09,42,9.80
2016,09,29,09,43,9.80
2016,09,29,09,44,9.90
2016,09,29,09,45,9.90
2016,09,29,09,46,9.90
2016,09,29,09,47,9.90
2016,09,29,09,48,10.00
2016,09,29,09,49,10.10
2016,09,29,09,50,10.10
2016,09,29,09,51,10.10
2016,09,29,09,52,10.20
2016,09,29,09,53,10.20
2016,09,29,09,54,10.20
2016,09,29,09,55,10.30
2016,09,29,09,56,10.40
2016,09,29,09,57,10.40
2016,09,29,09,58,10.50
2016,09,29,09,59,10.60
2016,09,29,10,00,10.60
2016,09,29,10,01,10.70
2016,09,29,10,02,10.70
2016,09,29,10,03,10.80
2016,09,29,10,04,10.80
2016,09,29,10,05,10.80
2016,09,29,10,06,10.80
2016,09,29,10,07,10.80
2016,09,29,10,08,10.90
2016,09,29,10,09,10.90
2016,09,29,10,10,10.90
2016,09,29,10,11,11.00
2016,09,29,10,12,11.00
2016,09,29,10,13,11.00
2016,09,29,10,14,11.00
2016,09,29,10,15,11.00
2016,09,29,10,16,11.00
2016,09,29,10,17,11.00
2016,09,29,10,18,11.00
2016,09,29,10,19,11.00
2016,09,29,10,20,11.00
2016,09,29,10,21,11.00
2016,09,29,10,22,11.00
2016,09,29,10,23,11.00
2016,09,29,10,24,11.00
2016,09,29,10,25,11.00
2016,09,29,10,26,11.00
2016,09,29,10,27,11.00
2016,09,29,10,28,11.00
2016,09,29,10,29,11.00
2016,09,29,10,30,11.00
2016,09,29,10,31,11.10
2016,09,29,10,32,11.10
2016,09,29,10,33,11.10
2016,09,29,10,34,11.20
2016,09,29,10,35,11.10
2016,09,29,10,36,11.10
2016,09,29,10,37,11.20
2016,09,29,10,38,11.20
2016,09,29,10,39,11.20
2016,09,29,10,40,11.30
2016,09,29,10,41,11.30
2016,09,29,10,42,11.30
2016,09,29,10,43,11.40
2016,09,29,10,44,11.50
2016,09,29,10,45,11.50
2016,09,29,10,46,11.60
2016,09,29,10,47,11.70
2016,09,29,10,48,11.70
2016,09,29,10,49,11.70
2016,09,29,10,50,11.80
2016,09,29,10,51,11.80
2016,09,29,10,52,11.90
2016,09,29,10,53,11.90
2016,09,29,10,54,12.00
2016,09,29,10,55,12.00
2016,09,29,10,56,12.00
2016,09,29,10,57,12.10
2016,09,29,10,58,12.10
2016,09,29,10,59,12.10
2016,09,29,11,00,12.10
2016,09,29,11,01,12.10
2016,09,29,11,02,12.10
2016,09,29,11,03,12.10
2016,09,29,11,04,12.10
2016,09,29,11,05,12.00
2016,09,29,11,06,12.00
2016,09,29,11,07,12.00
2016,09,29,11,08,12.10
2016,09,29,11,09,12.10
2016,09,29,11,10,12.10
2016,09,29,11,11,12.10
2016,09,29,11,12,12.10
2016,09,29,11,13,12.10
2016,09,29,11,14,12.20
2016,09,29,11,15,12.20
2016,09,29,11,16,12.20
2016,09,29,11,17,12.30
2016,09,29,11,18,12.30
2016,09,29,11,19,12.30
2016,09,29,11,20,12.30
2016,09,29,11,21,12.30
2016,09,29,11,22,12.30
2016,09,29,11,23,12.30
2016,09,29,11,24,12.30
2016,09,29,11,25,12.30
2016,09,29,11,26,12.30
2016,09,29,11,27,12.30
2016,09,29,11,28,12.40
2016,09,29,11,29,12.40
2016,09,29,11,30,12.40
2016,09,29,11,31,12.40
2016,09,29,11,32,12.40
2016,09,29,11,33,12.40
2016,09,29,11,34,12.30
2016,09,29,11,35,12.30
2016,09,29,11,36,12.30
2016,09,29,11,37,12.30
2016,09,29,11,38,12.30
2016,09,29,11,39,12.30
2016,09,29,11,40,12.20
2016,09,29,11,41,12.20
2016,09,29,11,42,12.20
2016,09,29,11,43,12.20
2016,09,29,11,44,12.20
2016,09,29,11,45,12.30
2016,09,29,11,46,12.30
2016,09,29,11,47,12.30
2016,09,29,11,48,12.30
2016,09,29,11,49,12.30
2016,09,29,11,50,12.30
2016,09,29,11,51,12.30
2016,09,29,11,52,12.30
2016,09,29,11,53,12.40
2016,09,29,11,54,12.40
2016,09,29,11,55,12.50
2016,09,29,11,56,12.50
2016,09,29,11,57,12.50
2016,09,29,11,58,12.60
2016,09,29,11,59,12.60
2016,09,29,12,00,12.70
2016,09,29,12,01,12.70
2016,09,29,12,02,12.80
2016,09,29,12,03,12.80
2016,09,29,12,04,12.90
2016,09,29,12,05,12.90
2016,09,29,12,06,13.00
2016,09,29,12,07,13.10
2016,09,29,12,08,13.20
2016,09,29,12,09,13.20
2016,09,29,12,10,13.30
2016,09,29,12,11,13.40
2016,09,29,12,12,13.40
2016,09,29,12,13,13.40
2016,09,29,12,14,13.40
2016,09,29,12,15,13.40
2016,09,29,12,16,13.50
2016,09,29,12,17,13.60
2016,09,29,12,18,13.60
2016,09,29,12,19,13.60
2016,09,29,12,20,13.70
2016,09,29,12,21,13.70
2016,09,29,12,22,13.70
2016,09,29,12,23,13.70
2016,09,29,12,24,13.80
2016,09,29,12,25,13.90
2016,09,29,12,26,13.90
2016,09,29,12,27,13.90
2016,09,29,12,28,13.80
2016,09,29,12,29,13.80
2016,09,29,12,30,13.80
2016,09,29,12,31,13.80
2016,09,29,12,32,13.70
2016,09,29,12,33,13.60
2016,09,29,12,34,13.60
2016,09,29,12,35,13.60
2016,09,29,12,36,13.50
2016,09,29,12,37,13.50
2016,09,29,12,38,13.60
2016,09,29,12,39,13.60
2016,09,29,12,40,13.60
2016,09,29,12,41,13.60
2016,09,29,12,42,13.70
2016,09,29,12,43,13.80
2016,09,29,12,44,13.90
2016,09,29,12,45,13.90
2016,09,29,12,46,13.90
2016,09,29,12,47,14.00
2016,09,29,12,48,13.90
2016,09,29,12,49,14.00
2016,09,29,12,50,13.90
2016,09,29,12,51,13.90
2016,09,29,12,52,13.90
2016,09,29,12,53,14.00
2016,09,29,12,54,14.00
2016,09,29,12,55,14.00
2016,09,29,12,56,14.10
2016,09,29,12,57,14.10
2016,09,29,12,58,14.10
2016,09,29,12,59,14.10
2016,09,29,13,00,14.10
2016,09,29,13,01,14.20
2016,09,29,13,02,14.30
2016,09,29,13,03,14.30
2016,09,29,13,04,14.40
2016,09,29,13,05,14.40
2016,09,29,13,06,14.40
2016,09,29,13,07,14.50
2016,09,29,13,08,14.50
2016,09,29,13,09,14.60
2016,09,29,13,10,14.70
2016,09,29,13,11,14.70
2016,09,29,13,12,14.80
2016,09,29,13,13,14.90
2016,09,29,13,14,14.90
2016,09,29,13,15,14.90
2016,09,29,13,16,14.90
2016,09,29,13,17,14.90
2016,09,29,13,18,14.80
2016,09,29,13,19,14.90
2016,09,29,13,20,14.90
2016,09,29,13,21,15.00
2016,09,29,13,22,15.00
2016,09,29,13,23,15.10
2016,09,29,13,24,15.00
2016,09,29,13,25,15.00
2016,09,29,13,26,15.10
2016,09,29,13,27,15.10
2016,09,29,13,28,15.00
2016,09,29,13,29,15.10
2016,09,29,13,30,15.00
2016,09,29,13,31,15.00
2016,09,29,13,32,14.90
2016,09,29,13,33,14.90
2016,09,29,13,34,14.90
2016,09,29,13,35,14.90
2016,09,29,13,36,14.90
2016,09,29,13,37,14.90
2016,09,29,13,38,14.90
2016,09,29,13,39,15.00
2016,09,29,13,40,15.00
2016,09,29,13,41,15.10
2016,09,29,13,42,15.10
2016,09,29,13,43,15.20
2016,09,29,13,44,15.20
2016,09,29,13,45,15.30
2016,09,29,13,46,15.30
2016,09,29,13,47,15.40
2016,09,29,13,48,15.50
2016,09,29,13,49,15.50
2016,09,29,13,50,15.50
2016,09,29,13,51,15.50
2016,09,29,13,52,15.50
2016,09,29,13,53,15.60
2016,09,29,13,54,15.60
2016,09,29,13,55,15.60
2016,09,29,13,56,15.70
2016,09,29,13,57,15.70
2016,09,29,13,58,15.70
2016,09,29,13,59,15.80
2016,09,29,14,00,15.90
2016,09,29,14,01,16.00
2016,09,29,14,02,16.10
2016,09,29,14,03,16.10
2016,09,29,14,04,16.00
2016,09,29,14,05,15.90
2016,09,29,14,06,15.90
2016,09,29,14,07,15.80
2016,09,29,14,08,15.70
2016,09,29,14,09,15.80
2016,09,29,14,10,15.70
2016,09,29,14,11,15.70
2016,09,29,14,12,15.70
2016,09,29,14,13,15.70
2016,09,29,14,14,15.70
2016,09,29,14,15,15.70
2016,09,29,14,16,15.80
2016,09,29,14,17,15.80
2016,09,29,14,18,15.80
2016,09,29,14,19,15.80
2016,09,29,14,20,15.80
2016,09,29,14,21,15.80
2016,09,29,14,22,15.90
2016,09,29,14,23,15.90
2016,09,29,14,24,15.90
2016,09,29,14,25,16.00
2016,09,29,14,26,16.00
2016,09,29,14,27,16.00
2016,09,29,14,28,16.10
2016,09,29,14,29,16.00
2016,09,29,14,30,16.00
2016,09,29,14,31,16.00
2016,09,29,14,32,16.00
2016,09,29,14,33,16.10
2016,09,29,14,34,16.10
2016,09,29,14,35,16.20
2016,09,29,14,36,16.20
2016,09,29,14,37,16.20
2016,09,29,14,38,16.30
2016,09,29,14,39,16.30
2016,09,29,14,40,16.30
2016,09,29,14,41,16.30
2016,09,29,14,42,16.30
2016,09,29,14,43,16.30
2016,09,29,14,44,16.30
2016,09,29,14,45,16.30
2016,09,29,14,46,16.30
2016,09,29,14,47,16.30
2016,09,29,14,48,16.30
2016,09,29,14,49,16.30
2016,09,29,14,50,16.30
2016,09,29,14,51,16.30
2016,09,29,14,52,16.20
2016,09,29,14,53,16.20
2016,09,29,14,54,16.20
2016,09,29,14,55,16.20
2016,09,29,14,56,16.20
2016,09,29,14,57,16.20
2016,09,29,14,58,16.20
2016,09,29,14,59,16.20
2016,09,29,15,00,16.20
2016,09,29,15,01,16.20
2016,09,29,15,02,16.20
2016,09,29,15,03,16.20
2016,09,29,15,04,16.30
2016,09,29,15,05,16.30
2016,09,29,15,06,16.30
2016,09,29,15,07,16.30
2016,09,29,15,08,16.30
2016,09,29,15,09,16.30
2016,09,29,15,10,16.30
2016,09,29,15,11,16.40
2016,09,29,15,12,16.40
2016,09,29,15,13,16.40
2016,09,29,15,14,16.50
2016,09,29,15,15,16.50
2016,09,29,15,16,16.40
2016,09,29,15,17,16.50
2016,09,29,15,18,16.50
2016,09,29,15,19,16.50
2016,09,29,15,20,16.50
2016,09,29,15,21,16.50
2016,09,29,15,22,16.40
2016,09,29,15,23,16.40
2016,09,29,15,24,16.40
2016,09,29,15,25,16.40
2016,09,29,15,26,16.40
2016,09,29,15,27,16.30
2016,09,29,15,28,16.30
2016,09,29,15,29,16.30
2016,09,29,15,30,16.30
2016,09,29,15,31,16.30
2016,09,29,15,32,16.20
2016,09,29,15,33,16.20
2016,09,29,15,34,16.20
2016,09,29,15,35,16.20
2016,09,29,15,36,16.20
2016,09,29,15,37,16.20
2016,09,29,15,38,16.20
2016,09,29,15,39,16.10
2016,09,29,15,40,16.10
2016,09,29,15,41,16.10
2016,09,29,15,42,16.10
2016,09,29,15,43,16.10
2016,09,29,15,44,16.10
2016,09,29,15,45,16.10
2016,09,29,15,46,16.10
2016,09,29,15,47,16.10
2016,09,29,15,48,16.10
2016,09,29,15,49,16.10
2016,09,29,15,50,16.20
2016,09,29,15,51,16.20
2016,09,29,15,52,16.20
2016,09,29,15,53,16.20
2016,09,29,15,54,16.30
2016,09,29,15,55,16.30
2016,09,29,15,56,16.30
2016,09,29,15,57,16.30
2016,09,29,15,58,16.30
2016,09,29,15,59,16.30
2016,09,29,16,00,16.40
2016,09,29,16,01,16.40
2016,09,29,16,02,16.40
2016,09,29,16,03,16.40
2016,09,29,16,04,16.40
2016,09,29,16,05,16.40
2016,09,29,16,06,16.40
2016,09,29,16,07,16.50
2016,09,29,16,08,16.50
2016,09,29,16,09,16.50
2016,09,29,16,10,16.50
2016,09,29,16,11,16.50
2016,09,29,16,12,16.50
2016,09,29,16,13,16.50
2016,09,29,16,14,16.50
2016,09,29,16,15,16.40
2016,09,29,16,16,16.40
2016,09,29,16,17,16.30
2016,09,29,16,18,16.30
2016,09,29,16,19,16.30
2016,09,29,16,20,16.20
2016,09,29,16,21,16.20
2016,09,29,16,22,16.20
2016,09,29,16,23,16.20
2016,09,29,16,24,16.20
2016,09,29,16,25,16.20
2016,09,29,16,26,16.20
2016,09,29,16,27,16.20
2016,09,29,16,28,16.20
2016,09,29,16,29,16.20
2016,09,29,16,30,16.20
2016,09,29,16,31,16.10
2016,09,29,16,32,16.10
2016,09,29,16,33,16.10
2016,09,29,16,34,16.10
2016,09,29,16,35,16.10
2016,09,29,16,36,16.10
2016,09,29,16,37,16.10
2016,09,29,16,38,16.10
2016,09,29,16,39,16.10
2016,09,29,16,40,16.00
2016,09,29,16,41,16.00
2016,09,29,16,42,16.00
2016,09,29,16,43,15.90
2016,09,29,16,44,15.90
2016,09,29,16,45,15.90
2016,09,29,16,46,15.90
2016,09,29,16,47,15.90
2016,09,29,16,48,15.90
2016,09,29,16,49,15.90
2016,09,29,16,50,15.90
2016,09,29,16,51,15.90
2016,09,29,16,52,15.80
2016,09,29,16,53,15.80
2016,09,29,16,54,15.80
2016,09,29,16,55,15.80
2016,09,29,16,56,15.80
2016,09,29,16,57,15.80
2016,09,29,16,58,15.80
2016,09,29,16,59,15.80
2016,09,29,17,00,15.80
2016,09,29,17,01,15.70
2016,09,29,17,02,15.70
2016,09,29,17,03,15.70
2016,09,29,17,04,15.70
2016,09,29,17,05,15.70
2016,09,29,17,06,15.70
2016,09,29,17,07,15.70
2016,09,29,17,08,15.70
2016,09,29,17,09,15.70
2016,09,29,17,10,15.60
2016,09,29,17,11,15.60
2016,09,29,17,12,15.60
2016,09,29,17,13,15.60
2016,09,29,17,14,15.50
2016,09,29,17,15,15.50
2016,09,29,17,16,15.40
2016,09,29,17,17,15.40
2016,09,29,17,18,15.40
2016,09,29,17,19,15.40
2016,09,29,17,20,15.30
2016,09,29,17,21,15.30
2016,09,29,17,22,15.30
2016,09,29,17,23,15.30
2016,09,29,17,24,15.30
2016,09,29,17,25,15.30
2016,09,29,17,26,15.30
2016,09,29,17,27,15.20
2016,09,29,17,28,15.20
2016,09,29,17,29,15.20
2016,09,29,17,30,15.20
2016,09,29,17,31,15.20
2016,09,29,17,32,15.20
2016,09,29,17,33,15.20
2016,09,29,17,34,15.20
2016,09,29,17,35,15.20
2016,09,29,17,36,15.20
2016,09,29,17,37,15.20
2016,09,29,17,38,15.20
2016,09,29,17,39,15.10
2016,09,29,17,40,15.10
2016,09,29,17,41,15.10
2016,09,29,17,42,15.10
2016,09,29,17,43,15.00